Terminal Aerodrome Forecast
Issued by NWS

Current Version | Previous Version | Text Only | Print | Product List | Glossary Off
Versions: 1 2 3 4 5 6 7 8 9 10 11 12 13 14 15 16

299
FTUS41 KILN 220535
TAFLUK
TAF
KLUK 220535Z 2206/2306 00000KT 2SM BR SCT003
      TEMPO 2206/2210 1/4SM FG VV002
     FM221200 32003KT P6SM SKC
     FM221500 32010KT P6SM SCT100
     FM230000 01004KT P6SM SKC=

USA.gov is the U.S. government's official web portal to all federal, state and local government web resources and services.